{"data":{"norad_id":53052,"intl_designator":"2022-077K","name":"STARLINK-4341","alt_names":[],"object_type":"PAYLOAD","status":"ACTIVE","operator":null,"country":"US","launch_date":"2022-07-11","launch_site_code":"AFWTR","launch_vehicle":null,"mission":null,"orbit_class":"UNKNOWN","rcs_meters":null,"size_class":null,"mass_kg":null,"dimensions":null,"purposes":["comms"],"wikipedia_slug":null,"has_3d_model":false,"image_url":null,"decayed_at":null,"tle_current":{"epoch":"2026-05-25T01:15:15.820416Z","epoch_age_seconds":64526,"freshness":"FRESH","line1":"1 53052U 22077K   26145.05226644 -.00011759  00000+0 -81094-3 0  9999","line2":"2 53052  97.4492 324.9661 0001496 186.4634 173.6574 15.05711864212393","mean_motion":15.05711864,"eccentricity":0.0001496,"inclination_deg":97.4492,"raan_deg":324.9661,"arg_perigee_deg":186.4634,"mean_anomaly_deg":173.6574,"bstar":-0.00081094,"rev_number":21239,"period_min":95.63582744009,"perigee_km":548.28505107312,"apogee_km":550.35774662605,"semimajor_km":6927.4583988496,"source":"CELESTRAK","updated_at":"2026-05-25T13:38:17.287429Z"}}}